FENGYUN 1C DEB

Satellite information

Favourite Embed

Satellite Type and Status

DEBRISIN ORBIT

Key statistics

Satellite FENGYUN 1C DEB at a glance.

Uptime

9658

Days in orbit

Revolutions

≈ 14.7

Per day

Orbit

SSO

Sun Synchronous Orbit

Inclination

99.0

Latest

Satellite identification and parameters

Extended collection of information and parameters for FENGYUN 1C DEB.

Object identification

Identified? True

Debris? True

Object name: FENGYUN 1C DEB

International designator: 1999-025EKP

Object number (NORAD): 37595

Object ID (CCSDS): 37595

Country: PEOPLES REPUBLIC OF CHINA (PRC)

Current information (Y/N): Y

RCS size: SMALL

Orbital parameters

Period: 98.209 minutes

Inclination: 99.0469 deg

SMA: 7051.156 km

Apoapsis: 692.181 km

Periapsis: 653.861 km

RAAN: 118.4067 deg

Eccentricy: 0.00271726

Argument of periapsis: 224.9909 deg

Mean anomaly: 162.2136 deg

Mean motion: 14.66264338 rev/day

Mean motion (dot): 0.00047028 rev/day2

B* drag term: 0.0084388262 1/REarth

Two-line elements (TLE)

Creation date: Oct. 3, 2025, 6:13 p.m.

Reference frame: TEME

Reference center: EARTH

Epoch: Oct. 3, 2025, 12:49 p.m. UTC

TLE line 0: 0 FENGYUN 1C DEB

TLE line 1: 1 37595U 99025EKP 25276.53408168 .00047028 00000-0 84388-2 0 9995

TLE line 2: 2 37595 99.0469 118.4067 0027173 224.9909 162.2136 14.66264338615758

Live tracking on map

Real-time ground track for satellite FENGYUN 1C DEB.

In-orbit conjunctions

A list of the most updated potential collisions computed for object FENGYUN 1C DEB.

Target Orbit TCA Probability of collision Miss distance Type
PICOSAT 3 SSO 2025-01-05 19:36:11 0.0001009875 532.0 (m) PAYLOAD
CZ-6A DEB LEO 2024-11-28 12:49:27 0.0001082935 250.0 (m) DEBRIS
NOAA 6 SSO 2024-09-29 04:25:42 0.0001026564 801.0 (m) PAYLOAD

Associated space launch

Chinese polar orbiting meteorological satellite

FENGYUN 1C DEB was lifted into orbit during the mission ‘Long March 4B | Feng Yun 1C’, on board a Long March 4B space rocket.

The launch took place on May 10, 1999, 1:33 a.m. from Launch Complex 7.

For more information about the launch, click the button.

Launch to space Long March 4B | Feng Yun 1C
Long March 4B | Feng Yun 1C

Agency: N/A

Status: Launch Successful

Launch date: May 10, 1999, 1:33 a.m. UTC

Rocket: Long March 4B

Launch pad: Launch Complex 7

Location: Taiyuan Satellite Launch Center, People's Republic of China

...

Latest news about this satellite

There are no fresh news available about this satellite. Check back as we update our databases every day.


Newsletter sign-up

Weekly statistics, charts and insights to help you stay on top of the space industry.